This is the latest recevied weather packets stored in our database for station/object DL1BWU. If no packets are shown the sender has not sent any weather packets the latest 10 day(s).
| Time | Temp. | Humidity | Pressure | Rain* | Wind** | Luminosity | Snow |
|---|---|---|---|---|---|---|---|
| 1777804514 | 27.22° C | 35% | 1012.2 hPa | 0 mm | - | - | - |
| 1777803914 | 27.22° C | 36% | 1012.2 hPa | 0 mm | - | - | - |
| 1777803314 | 26.67° C | 36% | 1012.4 hPa | 0 mm | - | - | - |
| 1777802714 | 26.67° C | 37% | 1012.6 hPa | 0 mm | - | - | - |
| 1777802114 | 26.11° C | 40% | 1012.6 hPa | 0 mm | - | - | - |
| 1777801514 | 25.56° C | 40% | 1012.7 hPa | 0 mm | - | - | - |
| 1777800914 | 25° C | 41% | 1012.7 hPa | 0 mm | - | - | - |
| 1777800314 | 24.44° C | 42% | 1013 hPa | 0 mm | - | - | - |
| 1777799714 | 24.44° C | 43% | 1012.8 hPa | 0 mm | - | - | - |
| 1777799114 | 23.33° C | 45% | 1012.9 hPa | 0 mm | - | - | - |
| 1777798514 | 23.33° C | 46% | 1013 hPa | 0 mm | - | - | - |
| 1777797914 | 22.78° C | 46% | 1013 hPa | 0 mm | - | - | - |
| 1777797314 | 22.22° C | 48% | 1013.2 hPa | 0 mm | - | - | - |
| 1777796714 | 21.67° C | 49% | 1013.2 hPa | 0 mm | - | - | - |
| 1777796114 | 21.11° C | 49% | 1013.2 hPa | 0 mm | - | - | - |
| 1777795514 | 20.56° C | 50% | 1013.4 hPa | 0 mm | - | - | - |
| 1777794914 | 20° C | 50% | 1013.2 hPa | 0 mm | - | - | - |
| 1777794315 | 20° C | 51% | 1013.3 hPa | 0 mm | - | - | - |
| 1777793714 | 19.44° C | 51% | 1013.4 hPa | 0 mm | - | - | - |
| 1777793115 | 18.89° C | 52% | 1013.5 hPa | 0 mm | - | - | - |
| 1777792515 | 18.33° C | 52% | 1013.4 hPa | 0 mm | - | - | - |
| 1777791915 | 17.78° C | 53% | 1013.2 hPa | 0 mm | - | - | - |
| 1777791315 | 17.22° C | 54% | 1013.3 hPa | 0 mm | - | - | - |
| 1777790715 | 16.67° C | 54% | 1013.4 hPa | 0 mm | - | - | - |
| 1777790115 | 16.11° C | 55% | 1013.4 hPa | 0 mm | - | - | - |
* Rain latest hour (hover to see other rain measurements)
** Current wind speed in m/s (hover to see current wind gust speed)